Find Starlink 34125

NORAD ID: 63901 Int'l Des: 2025-095 Owner: SPXS Country: US Constellation: starlink operational
LEOCIRCULAR

当前视图

正在加载3D地球...

About Starlink 34125

Starlink 34125 (NORAD 63901) is a starlink constellation satellite (v2 mini) launched May 10, 2025 by SPXS of US. It operates in LEO, CIRCULAR orbit with a mass of 575.00 kg.

即将过境

Passes for default location (London). Set your location on the main map for personalized predictions.

高度历史

Loading altitude history...

两行轨道根数

1 63901U 25095M 26263.97258644 .00017516 00000-0 64427-3 0 9990
2 63901 42.9993 153.3738 0001445 271.7483 88.3203 15.27593377 77640
Epoch: Sep 20, 2026 • Age: 11 hours

当前状态

高度 484.2 km
远地点 / 近地点 N/A
速度 7.63 km/s
星下点 29.99°N, 30.45°E
发射日期 May 10, 2025
运行时间 1.3 years
类型 internet

技术详情

分类 Payload
质量 575.00 kg
干质量 530.00 kg
长度 0.30 m
跨度 29.00 m
形状 ? Box + pan
制造商 SPXS
平台类型 Starlink V2MO
阶段状态 In Orbit
所有者/国家 SPXS/US

Most Searched